[[{"header":{"parameterUnit":"m.s-1","parameterCategory":1,"la1":30.2991,"la2":30.254,"lo1":-89.0895,"lo2":-89.0444,"dy":0.0017,"dx":0.0017,"nx":28,"ny":28,"refTime":"2025-03-09T03:00:00:Z","depth":0,"parameterNumber":2,"parameterNumberName":"U-component_of_WINDS"},"data":[0,0,0,0,0,0,0,0,0,0,0,0,0,0,0,0,0,0,0,0,0,0,0,0,0,0,0,0,0,0,0,0,0,0,0,0,0,0,0,0,0,0,0,0,0,0,0,0,0,0,0,0,0,0,0,0,0,0,-2.3753,-2.3754,0,-2.3828,-2.3828,-2.3829,-2.3823,-2.3822,-2.3821,-2.382,-2.3888,-2.389,-2.3893,0,0,0,0,0,0,0,0,0,0,0,0,0,-2.3597,-2.36,-2.3753,-2.3754,-2.3755,-2.3827,-2.3828,-2.3829,-2.3823,-2.3822,-2.3821,-2.3819,-2.3887,-2.389,-2.3893,0,0,0,0,0,0,0,0,0,0,0,0,0,-2.3667,-2.3601,-2.3753,-2.3761,-2.3763,-2.3827,-2.3828,-2.383,-2.3823,-2.3822,-2.382,-2.3819,-2.3886,-2.389,-2.3894,-2.3953,0,0,-2.3907,-2.3909,0,0,0,0,0,0,0,0,-2.3663,-2.3673,-2.3759,-2.3761,-2.3762,-2.3815,-2.3798,-2.3871,-2.3824,-2.38,-2.382,-2.3818,-2.3864,-2.387,-2.3887,-2.3956,-2.3959,-2.3907,-2.391,-2.3912,-2.3913,0,0,0,0,0,0,0,-2.3658,-2.367,-2.3782,-2.376,-2.3762,-2.3758,-2.3766,-2.3812,-2.384,-2.3802,-2.3802,-2.3811,-2.3865,-2.3883,-2.3889,-2.396,-2.3907,-2.3911,-2.3914,-2.3915,-2.4079,-2.4081,0,0,0,0,0,0,-2.3653,-2.3666,-2.378,-2.3785,-2.3708,-2.3762,-2.3771,-2.3799,-2.384,-2.3844,-2.3812,-2.3811,-2.3877,-2.3884,-2.3891,-2.3962,-2.3912,-2.3916,-2.3918,-2.4077,-2.4079,-2.4081,0,0,0,0,0,0,-2.365,-2.3663,-2.3777,-2.3725,-2.3739,-2.3766,-2.3798,-2.3802,-2.382,-2.3848,-2.3852,-2.3827,-2.3876,-2.3885,-2.3938,-2.3964,-2.3918,-2.3921,-2.4075,-2.4078,-2.408,-2.4105,0,0,0,0,0,0,-2.3645,-2.3662,-2.3687,-2.3726,-2.3742,-2.3826,-2.38,-2.3804,-2.3829,-2.3827,-2.3862,-2.3867,-2.3875,-2.3932,-2.3942,-2.3969,-2.3925,-2.4073,-2.4076,-2.4079,-2.4102,-2.4108,-2.4114,0,0,0,0,0,-2.364,-2.369,-2.3689,-2.3703,-2.3775,-2.3827,-2.3836,-2.3847,-2.3831,-2.3855,-2.3872,-2.3865,-2.396,-2.3937,-2.3949,-2.3978,-2.4071,-2.4075,-2.4079,-2.4099,-2.4107,-2.4114,0,0,0,0,0,0,-2.3652,-2.3695,-2.3694,-2.376,-2.379,-2.3826,-2.3857,-2.3855,-2.3889,-2.3886,-2.3896,-2.3904,-2.3956,-2.3972,-2.3946,-2.4036,-2.4013,-2.4019,-2.4024,-2.4032,-2.4037,-2.4032,-2.3928,0,0,0,0,0,-2.3662,-2.3704,-2.3739,-2.3793,-2.3808,-2.383,-2.3853,-2.3859,-2.389,-2.3902,-2.3923,-2.3951,-2.3987,-2.401,-2.4044,-2.4104,-2.411,-2.4129,-2.4135,-2.414,-2.4145,-2.4176,-2.4184,-2.4095,-2.4095,-2.4095,0,0,-2.3684,-2.3713,-2.3738,-2.3796,-2.382,-2.386,-2.3841,-2.3884,-2.3913,-2.3908,-2.3959,-2.3975,-2.4007,-2.4063,-2.4088,-2.4078,-2.4171,-2.4145,-2.4149,-2.4151,-2.4181,-2.4189,-2.4197,-2.4097,-2.4097,-2.4096,0,0,-2.3744,-2.3771,-2.3818,-2.3843,-2.3881,-2.3895,-2.3906,-2.3942,-2.3953,-2.4006,-2.4002,-2.4035,-2.4097,-2.4119,-2.4138,-2.4204,-2.4198,-2.4215,-2.4245,-2.4275,-2.4282,-2.4288,-2.431,-2.4318,-2.422,-2.422,-2.422,0,-2.3765,-2.3829,-2.3842,-2.3886,-2.391,-2.3909,-2.3955,-2.3977,-2.4023,-2.4038,-2.4026,-2.4103,-2.4124,-2.4184,-2.42,-2.4217,-2.4227,-2.4211,-2.428,-2.4287,-2.4292,-2.4314,-2.4322,-2.4222,-2.4222,-2.4221,-2.4221,0,-2.3852,-2.3895,-2.3928,-2.3975,-2.4003,-2.4047,-2.4064,-2.409,-2.4093,-2.4107,-2.4158,-2.4184,-2.4223,-2.4237,-2.424,-2.4297,-2.4289,-2.4278,-2.4255,-2.4303,-2.4322,-2.4331,-2.4224,-2.4224,-2.4223,-2.4223,0,0,-2.3923,-2.3976,-2.3988,-2.4008,-2.4049,-2.4081,-2.4123,-2.4164,-2.4185,-2.4215,-2.425,-2.4302,-2.4292,-2.4314,-2.4318,-2.4345,-2.4393,-2.433,-2.4331,-2.434,-2.4456,-2.4463,-2.4473,-2.439,-2.4391,-2.4393,-2.4453,0,-2.3986,-2.4066,-2.4078,-2.4146,-2.4185,-2.4184,-2.422,-2.4247,-2.4261,-2.4293,-2.4307,-2.4343,-2.4328,-2.4341,-2.4367,-2.4382,-2.4416,-2.4378,-2.4419,-2.4421,-2.4412,-2.4483,-2.4492,-2.4547,-2.4461,-2.4462,-2.4463,0,-2.4071,-2.4106,-2.418,-2.4213,-2.423,-2.4263,-2.43,-2.4332,-2.4361,-2.4369,-2.4393,-2.4394,-2.4435,-2.441,-2.4466,-2.4439,-2.4457,-2.4466,-2.4468,-2.4472,-2.4444,-2.4488,-2.4565,-2.4573,-2.4476,-2.4475,-2.4474,0,-2.4114,-2.4179,-2.4231,-2.4248,-2.429,-2.4313,-2.433,-2.4358,-2.4381,-2.4412,-2.4426,-2.446,-2.4479,-2.4504,-2.4513,-2.4495,-2.4568,-2.4544,-2.4573,-2.4573,-2.4588,-2.4587,-2.4668,-2.4601,-2.4601,-2.46,-2.46,0,-2.4183,-2.4227,-2.4251,-2.4283,-2.4331,-2.4343,-2.4389,-2.4406,-2.443,-2.4463,-2.4462,-2.4492,-2.4503,-2.4534,-2.4541,-2.4584,-2.4593,-2.4598,-2.46,-2.4598,-2.4597,-2.4609,-2.4605,-2.4603,-2.4602,-2.4602,-2.4601,0,-2.4239,-2.4257,-2.4313,-2.4347,-2.4357,-2.4391,-2.4419,-2.4447,-2.446,-2.4501,-2.4511,-2.4531,-2.4567,-2.4579,-2.4622,-2.4626,-2.4677,-2.4675,-2.4668,-2.4668,-2.4695,-2.4692,-2.4787,-2.4799,-2.4724,-2.4725,-2.4726,0,-2.4282,-2.4316,-2.4354,-2.4377,-2.4396,-2.4433,-2.4456,-2.4468,-2.4492,-2.4527,-2.4551,-2.4587,-2.4617,-2.4674,-2.469,-2.4722,-2.4721,-2.4752,-2.4725,-2.4722,-2.4719,-2.4717,-2.4719,-2.4756,-2.4757,-2.4758,-2.4758,0,-2.4355,-2.4362,-2.4398,-2.4435,-2.4464,-2.4494,-2.4522,-2.454,-2.4555,-2.4581,-2.4619,-2.4642,-2.4687,-2.4722,-2.4755,-2.4769,-2.4765,-2.4766,-2.4774,-2.4773,-2.4767,-2.4769,-2.468,-2.4764,-2.4763,-2.4763,-2.4763,-2.4762,-2.4405,-2.4435,-2.4466,-2.4505,-2.4528,-2.4554,-2.4583,-2.4599,-2.4632,-2.4671,-2.4675,-2.4715,-2.474,-2.4784,-2.4801,-2.483,-2.4821,-2.4833,-2.4836,-2.4839,-2.4841,-2.4763,-2.4836,-2.4836,-2.4836,-2.4836,-2.4836,0,-2.4478,-2.4498,-2.4533,-2.4574,-2.4603,-2.4599,-2.463,-2.4654,-2.469,-2.4715,-2.4745,-2.4787,-2.4821,-2.4839,-2.4872,-2.4892,-2.4891,-2.49,-2.4898,-2.4901,-2.4847,-2.4837,-2.49,-2.49,-2.49,-2.49,-2.49,-2.49,-2.4519,-2.4568,-2.4578,-2.4638,-2.4657,-2.4698,-2.4716,-2.4739,-2.4759,-2.4807,-2.4835,-2.4848,-2.487,-2.4904,-2.4934,-2.4938,-2.4949,-2.4959,-2.4962,-2.4912,-2.4905,-2.4899,-2.4889,-2.4962,-2.4962,-2.5013,-2.5014,-2.5014]},{"header":{"parameterUnit":"m.s-1","parameterCategory":1,"la1":30.2991,"la2":30.254,"lo1":-89.0895,"lo2":-89.0444,"dy":0.0017,"dx":0.0017,"nx":28,"ny":28,"refTime":"2025-03-09T03:00:00:Z","depth":0,"parameterNumber":3,"parameterNumberName":"V-component_of_WINDS"},"data":[0,0,0,0,0,0,0,0,0,0,0,0,0,0,0,0,0,0,0,0,0,0,0,0,0,0,0,0,0,0,0,0,0,0,0,0,0,0,0,0,0,0,0,0,0,0,0,0,0,0,0,0,0,0,0,0,0,0,-1.444,-1.4441,0,-1.4513,-1.4514,-1.4515,-1.4638,-1.4641,-1.4643,-1.4645,-1.4712,-1.4712,-1.4712,0,0,0,0,0,0,0,0,0,0,0,0,0,-1.4402,-1.4402,-1.444,-1.4441,-1.4442,-1.4513,-1.4514,-1.4515,-1.4638,-1.4641,-1.4644,-1.4646,-1.4713,-1.4712,-1.4712,0,0,0,0,0,0,0,0,0,0,0,0,0,-1.444,-1.4402,-1.444,-1.4512,-1.4519,-1.4513,-1.4514,-1.4515,-1.4637,-1.4641,-1.4644,-1.4648,-1.4713,-1.4712,-1.4712,-1.4638,0,0,-1.471,-1.471,0,0,0,0,0,0,0,0,-1.4438,-1.4442,-1.4501,-1.4507,-1.4515,-1.457,-1.4525,-1.4556,-1.4636,-1.4592,-1.4645,-1.4649,-1.4662,-1.4666,-1.4672,-1.4642,-1.4644,-1.471,-1.471,-1.4709,-1.4709,0,0,0,0,0,0,0,-1.4435,-1.4439,-1.4469,-1.4501,-1.451,-1.4539,-1.4548,-1.4532,-1.4606,-1.4596,-1.4606,-1.4613,-1.4666,-1.4672,-1.4674,-1.4645,-1.471,-1.4709,-1.4709,-1.4709,-1.4559,-1.4556,0,0,0,0,0,0,-1.4423,-1.4436,-1.4467,-1.4471,-1.4485,-1.4537,-1.4547,-1.4549,-1.4607,-1.4619,-1.461,-1.4618,-1.4671,-1.4674,-1.4677,-1.4595,-1.4709,-1.4709,-1.4708,-1.4563,-1.4558,-1.4554,0,0,0,0,0,0,-1.4422,-1.4424,-1.4464,-1.4456,-1.4464,-1.4534,-1.4535,-1.4549,-1.4554,-1.4617,-1.4631,-1.4602,-1.4674,-1.4678,-1.4648,-1.4599,-1.4709,-1.4708,-1.4567,-1.4561,-1.4556,-1.4431,0,0,0,0,0,0,-1.442,-1.4423,-1.4398,-1.4455,-1.4463,-1.4435,-1.4532,-1.4548,-1.4554,-1.4566,-1.4613,-1.4624,-1.4677,-1.4648,-1.4647,-1.46,-1.4708,-1.4572,-1.4565,-1.4558,-1.444,-1.4422,-1.4407,0,0,0,0,0,-1.4418,-1.4358,-1.4396,-1.4399,-1.4433,-1.4432,-1.4437,-1.45,-1.4549,-1.4523,-1.4564,-1.4623,-1.4605,-1.4644,-1.4644,-1.4596,-1.4575,-1.4567,-1.4559,-1.4447,-1.4425,-1.4407,0,0,0,0,0,0,-1.429,-1.4366,-1.4409,-1.4366,-1.4392,-1.4453,-1.4422,-1.4475,-1.4485,-1.4496,-1.4572,-1.4582,-1.4541,-1.4566,-1.4608,-1.4529,-1.4599,-1.459,-1.4514,-1.4494,-1.4478,-1.4472,-1.4707,0,0,0,0,0,-1.4257,-1.4252,-1.4318,-1.4273,-1.4285,-1.435,-1.4352,-1.4399,-1.4428,-1.4439,-1.4477,-1.4501,-1.4501,-1.4499,-1.4502,-1.4444,-1.4455,-1.4411,-1.4395,-1.4381,-1.4372,-1.4343,-1.4324,-1.4527,-1.4528,-1.4528,0,0,-1.4188,-1.423,-1.4221,-1.4249,-1.4274,-1.4265,-1.4359,-1.4345,-1.4339,-1.4436,-1.4411,-1.4439,-1.4471,-1.4427,-1.4409,-1.4446,-1.4319,-1.437,-1.4359,-1.4358,-1.4332,-1.4313,-1.4296,-1.4522,-1.4523,-1.4524,0,0,-1.4059,-1.409,-1.4057,-1.4081,-1.4119,-1.4164,-1.4155,-1.4208,-1.4232,-1.4209,-1.4282,-1.4274,-1.4272,-1.4291,-1.4301,-1.4179,-1.4233,-1.4178,-1.4091,-1.4061,-1.4045,-1.4031,-1.3987,-1.3971,-1.4169,-1.4169,-1.4169,0,-1.3968,-1.396,-1.4032,-1.4014,-1.4024,-1.4114,-1.408,-1.4099,-1.4135,-1.4138,-1.418,-1.418,-1.4207,-1.4169,-1.4139,-1.4144,-1.4136,-1.4172,-1.4042,-1.4029,-1.4017,-1.3976,-1.3959,-1.4162,-1.4162,-1.4163,-1.4164,0,-1.3846,-1.3839,-1.3807,-1.3843,-1.3848,-1.3822,-1.3888,-1.3885,-1.3931,-1.3971,-1.3945,-1.3981,-1.3994,-1.3988,-1.4032,-1.3955,-1.3977,-1.4029,-1.4101,-1.3989,-1.3952,-1.3937,-1.4152,-1.4154,-1.4156,-1.4158,0,0,-1.3637,-1.3714,-1.3701,-1.3719,-1.3768,-1.3762,-1.374,-1.3754,-1.375,-1.3771,-1.3753,-1.375,-1.3799,-1.3809,-1.3857,-1.3831,-1.3731,-1.3886,-1.3888,-1.3855,-1.3648,-1.3608,-1.3588,-1.3768,-1.3765,-1.3763,-1.3645,0,-1.3517,-1.3486,-1.355,-1.3502,-1.3496,-1.3582,-1.3562,-1.3588,-1.3624,-1.3622,-1.3662,-1.3658,-1.3723,-1.373,-1.3709,-1.3748,-1.369,-1.3757,-1.375,-1.3749,-1.3739,-1.3569,-1.3527,-1.3413,-1.3631,-1.3628,-1.3627,0,-1.3374,-1.3391,-1.3343,-1.3396,-1.3395,-1.3376,-1.3395,-1.3393,-1.3424,-1.3452,-1.3464,-1.3521,-1.35,-1.357,-1.3542,-1.3586,-1.3586,-1.3605,-1.3602,-1.3603,-1.368,-1.3564,-1.3379,-1.3361,-1.3604,-1.3606,-1.3608,0,-1.3226,-1.3237,-1.321,-1.3222,-1.3283,-1.3267,-1.3291,-1.3327,-1.3331,-1.3346,-1.335,-1.3361,-1.3367,-1.3374,-1.3431,-1.3477,-1.3395,-1.347,-1.3416,-1.3414,-1.3394,-1.3394,-1.3204,-1.3395,-1.3395,-1.3396,-1.3396,0,-1.3085,-1.3052,-1.3144,-1.3127,-1.3092,-1.3166,-1.3128,-1.3161,-1.3191,-1.318,-1.3255,-1.3242,-1.3319,-1.3314,-1.3358,-1.3327,-1.3329,-1.335,-1.3362,-1.3343,-1.334,-1.3344,-1.3352,-1.3391,-1.3392,-1.3393,-1.3394,0,-1.2914,-1.2975,-1.2951,-1.3011,-1.3025,-1.2996,-1.3047,-1.3032,-1.3074,-1.3059,-1.306,-1.3123,-1.3122,-1.318,-1.3189,-1.3219,-1.3168,-1.3195,-1.3158,-1.3166,-1.3108,-1.3112,-1.2913,-1.289,-1.3096,-1.3094,-1.3092,0,-1.282,-1.2797,-1.2856,-1.2855,-1.2876,-1.2874,-1.288,-1.2951,-1.2953,-1.2988,-1.2968,-1.2974,-1.2981,-1.2974,-1.302,-1.3027,-1.3053,-1.2984,-1.3055,-1.3036,-1.3051,-1.3051,-1.3049,-1.2968,-1.2965,-1.2963,-1.2961,0,-1.2647,-1.2678,-1.2685,-1.2702,-1.2708,-1.2724,-1.2744,-1.2739,-1.2816,-1.2815,-1.2816,-1.2822,-1.2833,-1.2836,-1.2852,-1.2874,-1.2929,-1.2939,-1.2926,-1.2906,-1.2885,-1.2895,-1.3116,-1.2943,-1.2945,-1.2946,-1.2947,-1.2948,-1.2511,-1.2494,-1.2533,-1.2538,-1.2562,-1.258,-1.2569,-1.261,-1.2613,-1.2629,-1.267,-1.2663,-1.2695,-1.2722,-1.274,-1.2734,-1.2768,-1.2751,-1.2746,-1.274,-1.2729,-1.2887,-1.2737,-1.2738,-1.2738,-1.2739,-1.2739,0,-1.2341,-1.2371,-1.2375,-1.2402,-1.2406,-1.2461,-1.2486,-1.2485,-1.2479,-1.2505,-1.2512,-1.2512,-1.2515,-1.2561,-1.257,-1.2556,-1.2582,-1.2556,-1.2557,-1.2561,-1.2698,-1.2708,-1.2535,-1.2535,-1.2535,-1.2535,-1.2535,-1.2535,-1.2253,-1.2228,-1.2263,-1.225,-1.228,-1.2276,-1.2286,-1.2302,-1.2323,-1.232,-1.2325,-1.2356,-1.2389,-1.2401,-1.2406,-1.2419,-1.2418,-1.2383,-1.2404,-1.2532,-1.2551,-1.257,-1.2579,-1.2383,-1.2383,-1.2268,-1.2267,-1.2266]}]]